Home   Weather   Caen   Past weeks

Flag for France Past Weather in Caen, Lower Normandy, France — Yesterday and Last 2 Weeks

Now
54 °F

Clear.


Feels Like: 51 °F
Forecast: 52 / 61 °F
Wind: 8 mph from Southwest

Location: Caen Airport

Current Time: Sep 30, 2016 at 7:04:17 AM

Latest Report: Sep 30, 2016 at 6:30 AM


Visibility: 10 mi

Pressure: 30.01 "Hg

Humidity: 88%

Dew Point: 50 °F

Location of CaenLocation

Past Weather in Caen — Graph

°F

Caen Temperature Yesterday

Maximum temperature yesterday: 66 °F (at 2:00 PM)
Minimum temperature yesterday: 55 °F (at 6:00 AM)
Average temperature yesterday: 60 °F

High & Low Weather Summary for the Past Weeks

 TemperatureHumidityPressure
High77 °F (Sep 24, 3:00 PM)100% (Sep 15, 6:00 AM)30.39 "Hg (Sep 15, 6:00 AM)
Low46 °F (Sep 24, 6:00 AM)38% (Sep 26, 4:30 PM)29.77 "Hg (Sep 15, 7:30 AM)
Average60 °F82%30.12 "Hg
* Reported Sep 15 6:00 AM — Sep 30 6:00 AM, Caen, Weather by CustomWeather, © 2016

Note: Actual official high and low records may vary slightly from our data, if they occured in-between our weather recording intervals... More about our weather records

Advertising

Caen Weather History for the Previous 24 Hours

Scroll right to see more
 ConditionsComfort  
Time TempWeatherWind HumidityBarometerVisibility
6:00 AM
Fri, Sep 30
52 °FClear.7 mph94%30.01 "Hg10 mi
5:30 AM52 °FClear.6 mph94%30.01 "Hg10 mi
5:00 AM54 °FClear.7 mph88%29.98 "Hg10 mi
4:30 AM52 °FClear.6 mph94%30.01 "Hg10 mi
4:00 AM52 °FClear.7 mph94%30.01 "Hg10 mi
3:30 AM50 °FClear.6 mph100%30.01 "Hg10 mi
3:00 AM52 °FClear.3 mph94%30.01 "Hg10 mi
2:30 AM54 °FClear.7 mph88%30.01 "Hg10 mi
2:00 AM54 °FClear.7 mph94%30.04 "Hg10 mi
1:30 AM54 °FClear.7 mph94%30.04 "Hg10 mi
1:00 AM54 °FClear.7 mph94%30.04 "Hg10 mi
12:30 AM54 °FClear.7 mph94%30.04 "Hg10 mi
12:00 AM54 °FClear.7 mph94%30.04 "Hg10 mi
11:30 PM
Thu, Sep 29
55 °FClear.7 mph94%30.04 "Hg10 mi
11:00 PM55 °FClear.6 mph94%30.07 "Hg10 mi
10:30 PM57 °FClear.7 mph88%30.07 "Hg10 mi
10:00 PM57 °FClear.8 mph88%30.07 "Hg10 mi
9:30 PM59 °FClear.8 mph88%30.04 "Hg10 mi
9:00 PM59 °FClear.8 mph88%30.07 "Hg10 mi
8:30 PM59 °FClear.8 mph88%30.07 "Hg10 mi
8:00 PM59 °FMostly cloudy.8 mph82%30.04 "HgN/A
7:30 PM59 °FOvercast.9 mph82%30.07 "HgN/A
7:00 PM59 °FMostly cloudy.10 mph88%30.04 "HgN/A
6:30 PM59 °FLight rain. Overcast.9 mph88%30.07 "HgN/A
6:00 PM59 °FOvercast.17 mph88%30.07 "HgN/A
5:30 PM61 °FLow clouds.13 mph83%30.07 "HgN/A
5:00 PM59 °FDrizzle. More clouds than sun.16 mph94%30.07 "Hg4 mi
4:30 PM66 °FMostly cloudy.16 mph78%30.07 "HgN/A
4:00 PM66 °FMostly cloudy.15 mph78%30.07 "HgN/A
3:30 PM66 °FMostly cloudy.13 mph78%30.07 "HgN/A
3:00 PM66 °FOvercast.15 mph78%30.07 "HgN/A
2:30 PM66 °FOvercast.14 mph78%30.07 "HgN/A
2:00 PM66 °FOvercast.14 mph78%30.07 "HgN/A
1:30 PM64 °FOvercast.16 mph83%30.07 "HgN/A
1:00 PM64 °FOvercast.13 mph78%30.09 "HgN/A
12:30 PM64 °FOvercast.15 mph78%30.09 "HgN/A
12:00 PM64 °FOvercast.16 mph78%30.09 "HgN/A
11:30 AM63 °FMostly cloudy.18 mph77%30.09 "HgN/A
11:00 AM63 °FOvercast.17 mph77%30.12 "HgN/A
10:30 AM63 °FOvercast.17 mph77%30.12 "HgN/A
10:00 AM61 °FMostly cloudy.14 mph83%30.12 "HgN/A
9:30 AM59 °FPartly sunny.12 mph82%30.12 "HgN/A
9:00 AM57 °FPassing clouds.12 mph82%30.12 "HgN/A
8:30 AM55 °FPartly sunny.12 mph88%30.12 "HgN/A
8:00 AM55 °FPartly sunny.12 mph88%30.12 "HgN/A
7:30 AM55 °FPassing clouds.9 mph88%30.15 "HgN/A
7:00 AM55 °FOvercast.14 mph88%30.15 "HgN/A
Weather by CustomWeather, © 2016

See weather overviewHow to use our weather pages